[[{"header":{"parameterUnit":"m.s-1","parameterCategory":1,"la1":30.2991,"la2":30.254,"lo1":-89.0895,"lo2":-89.0444,"dx":0.0017,"dy":0.0017,"nx":28,"ny":28,"refTime":"2022-11-15T15:00:00:Z","depth":0,"parameterNumber":2,"parameterNumberName":"U-component_of_WINDS"},"data":[0,0,0,0,0,0,0,0,0,0,0,0,0,0,0,0,0,0,0,0,0,0,0,0,0,0,0,0,0,0,0,0,0,0,0,0,0,0,0,0,0,0,0,0,0,0,0,0,0,0,0,0,0,0,0,0,0,0,0.0088,0.0087,0,-0.0017,-0.0019,-0.002,-0.0024,-0.0023,-0.0021,-0.002,-0.0131,-0.0135,-0.0139,0,0,0,0,0,0,0,0,0,0,0,0,0,0.0285,0.0281,0.0088,0.0087,0.0086,-0.0017,-0.0019,-0.002,-0.0024,-0.0023,-0.0021,-0.002,-0.013,-0.0135,-0.014,0,0,0,0,0,0,0,0,0,0,0,0,0,0.0191,0.028,0.0088,0.0071,0.0069,-0.0017,-0.0019,-0.002,-0.0024,-0.0023,-0.0021,-0.0019,-0.0128,-0.0134,-0.014,-0.0217,0,0,-0.0159,-0.0162,0,0,0,0,0,0,0,0,0.0197,0.0184,0.0075,0.0072,0.0069,-0.0005,0.001,-0.0086,-0.0025,0.0011,-0.002,-0.0018,-0.0091,-0.01,-0.0124,-0.0222,-0.0227,-0.016,-0.0164,-0.0166,-0.0168,0,0,0,0,0,0,0,0.0203,0.0188,0.0046,0.0073,0.007,0.0068,0.0057,-0.0008,-0.005,0.0008,0.0007,-0.0005,-0.0092,-0.0118,-0.0127,-0.0228,-0.016,-0.0165,-0.0169,-0.0172,-0.0393,-0.0395,0,0,0,0,0,0,0.0213,0.0194,0.005,0.0043,0.0139,0.0063,0.0051,0.0016,-0.0049,-0.0057,-0.0007,-0.0005,-0.0109,-0.012,-0.0131,-0.0224,-0.0166,-0.0172,-0.0176,-0.0391,-0.0393,-0.0396,0,0,0,0,0,0,0.0217,0.02,0.0054,0.0118,0.01,0.0058,0.0019,0.0013,-0.0013,-0.006,-0.0067,-0.0025,-0.0108,-0.0122,-0.0195,-0.0228,-0.0175,-0.0181,-0.0388,-0.0391,-0.0394,-0.0412,0,0,0,0,0,0,0.0223,0.0202,0.0173,0.0118,0.0096,-0.0008,0.0017,0.001,-0.0023,-0.0022,-0.0079,-0.0087,-0.0107,-0.0186,-0.0201,-0.0236,-0.0185,-0.0385,-0.039,-0.0393,-0.0409,-0.0415,-0.0421,0,0,0,0,0,0.023,0.0171,0.0171,0.0154,0.0059,-0.001,-0.0022,-0.0043,-0.0026,-0.0056,-0.0085,-0.0085,-0.0222,-0.0193,-0.0211,-0.0248,-0.0383,-0.0388,-0.0393,-0.0406,-0.0414,-0.0421,0,0,0,0,0,0,0.0221,0.0163,0.0163,0.0084,0.0042,-0.0011,-0.0049,-0.0052,-0.0101,-0.0098,-0.0122,-0.0135,-0.0207,-0.0235,-0.0202,-0.0324,-0.03,-0.0309,-0.0304,-0.0312,-0.0318,-0.0311,-0.0191,0,0,0,0,0,0.021,0.016,0.0112,0.0047,0.0026,-0.0008,-0.0038,-0.0051,-0.0096,-0.0114,-0.0149,-0.0193,-0.0246,-0.028,-0.0332,-0.0412,-0.0424,-0.0446,-0.0452,-0.0457,-0.0464,-0.0508,-0.0518,-0.0411,-0.0411,-0.0411,0,0,0.0187,0.0149,0.0118,0.0045,0.001,-0.0042,-0.0023,-0.0079,-0.0118,-0.0123,-0.0193,-0.022,-0.0271,-0.0348,-0.0383,-0.0373,-0.0496,-0.0463,-0.0466,-0.0472,-0.0514,-0.0524,-0.0533,-0.0415,-0.0414,-0.0414,0,0,0.0117,0.0084,0.0026,-0.0007,-0.0058,-0.008,-0.0094,-0.0146,-0.0164,-0.0234,-0.0239,-0.0285,-0.0376,-0.0411,-0.0441,-0.0522,-0.0523,-0.0537,-0.0571,-0.0613,-0.0622,-0.0629,-0.0658,-0.0668,-0.0545,-0.0545,-0.0545,0,0.0093,0.0016,-0.0003,-0.0059,-0.0091,-0.0095,-0.0154,-0.0186,-0.0251,-0.0274,-0.026,-0.0372,-0.0407,-0.0492,-0.0511,-0.0535,-0.0551,-0.0532,-0.0619,-0.0626,-0.0634,-0.0662,-0.0672,-0.0546,-0.0546,-0.0546,-0.0546,0,-0.0011,-0.0064,-0.0104,-0.0166,-0.0202,-0.0259,-0.0287,-0.0321,-0.0329,-0.0352,-0.0424,-0.0465,-0.0524,-0.0545,-0.0554,-0.063,-0.0622,-0.0613,-0.059,-0.0645,-0.0672,-0.0682,-0.0548,-0.0548,-0.0547,-0.0547,0,0,-0.0092,-0.0161,-0.0175,-0.0203,-0.0258,-0.03,-0.0356,-0.0413,-0.0442,-0.0486,-0.0534,-0.0609,-0.0601,-0.0635,-0.0648,-0.0685,-0.0745,-0.0671,-0.0673,-0.0684,-0.0831,-0.0838,-0.085,-0.0745,-0.0748,-0.0749,-0.0827,0,-0.0168,-0.0268,-0.0285,-0.0373,-0.0422,-0.0426,-0.0475,-0.0514,-0.0536,-0.0582,-0.0607,-0.066,-0.0645,-0.0665,-0.0701,-0.073,-0.0775,-0.0724,-0.0791,-0.0793,-0.078,-0.0864,-0.0872,-0.0944,-0.0838,-0.0839,-0.0841,0,-0.0271,-0.0316,-0.0408,-0.0455,-0.0477,-0.0521,-0.0573,-0.0616,-0.066,-0.0674,-0.071,-0.0718,-0.0777,-0.0749,-0.083,-0.0795,-0.0823,-0.0841,-0.0844,-0.0852,-0.0821,-0.0875,-0.0967,-0.0978,-0.0857,-0.0856,-0.0855,0,-0.0322,-0.0405,-0.0471,-0.0494,-0.0551,-0.0581,-0.0606,-0.0648,-0.068,-0.0726,-0.0747,-0.0799,-0.0828,-0.0868,-0.0889,-0.0867,-0.0969,-0.0943,-0.0982,-0.0982,-0.1005,-0.1003,-0.1103,-0.1021,-0.1021,-0.102,-0.102,0,-0.0406,-0.0462,-0.0494,-0.0535,-0.0598,-0.0616,-0.0678,-0.0703,-0.0739,-0.0785,-0.0791,-0.0833,-0.0859,-0.0905,-0.0922,-0.0986,-0.0999,-0.1012,-0.1016,-0.1012,-0.1011,-0.1032,-0.1028,-0.1023,-0.1023,-0.1022,-0.1022,0,-0.0474,-0.0498,-0.0569,-0.0616,-0.0629,-0.0673,-0.0713,-0.0752,-0.0773,-0.0831,-0.0845,-0.0879,-0.0933,-0.0958,-0.1025,-0.1037,-0.111,-0.111,-0.1095,-0.1097,-0.1134,-0.113,-0.1252,-0.1269,-0.1175,-0.1176,-0.1176,0,-0.0527,-0.057,-0.062,-0.0651,-0.0676,-0.0725,-0.0757,-0.0776,-0.081,-0.0862,-0.0895,-0.0949,-0.0993,-0.108,-0.111,-0.1162,-0.1164,-0.1203,-0.1172,-0.1166,-0.1165,-0.1162,-0.1167,-0.1209,-0.121,-0.1211,-0.1211,0,-0.0619,-0.0627,-0.0673,-0.0723,-0.076,-0.0801,-0.084,-0.0865,-0.089,-0.0927,-0.0982,-0.1016,-0.1084,-0.1137,-0.119,-0.1216,-0.1218,-0.122,-0.1232,-0.1229,-0.1219,-0.1225,-0.1111,-0.1218,-0.1217,-0.1217,-0.1217,-0.1216,-0.0681,-0.0719,-0.076,-0.0811,-0.0842,-0.0878,-0.0917,-0.0941,-0.0987,-0.1043,-0.1052,-0.111,-0.1151,-0.1222,-0.1249,-0.1295,-0.1286,-0.1303,-0.1308,-0.1312,-0.1314,-0.121,-0.1305,-0.1305,-0.1305,-0.1304,-0.1304,0,-0.0774,-0.0799,-0.0845,-0.0899,-0.0939,-0.0935,-0.0978,-0.1011,-0.1062,-0.11,-0.1143,-0.1205,-0.1256,-0.129,-0.1341,-0.1372,-0.1374,-0.1385,-0.1383,-0.1389,-0.1319,-0.1304,-0.1382,-0.1382,-0.1382,-0.1382,-0.1382,-0.1382,-0.0826,-0.089,-0.0904,-0.0982,-0.1008,-0.1064,-0.1089,-0.1122,-0.1152,-0.1221,-0.1263,-0.1284,-0.132,-0.1374,-0.142,-0.1429,-0.1448,-0.1459,-0.1468,-0.1402,-0.1394,-0.1387,-0.1372,-0.1463,-0.1463,-0.1534,-0.1534,-0.1535]},{"header":{"parameterUnit":"m.s-1","parameterCategory":1,"la1":30.2991,"la2":30.254,"lo1":-89.0895,"lo2":-89.0444,"dx":0.0017,"dy":0.0017,"nx":28,"ny":28,"refTime":"2022-11-15T15:00:00:Z","depth":0,"parameterNumber":3,"parameterNumberName":"V-component_of_WINDS"},"data":[0,0,0,0,0,0,0,0,0,0,0,0,0,0,0,0,0,0,0,0,0,0,0,0,0,0,0,0,0,0,0,0,0,0,0,0,0,0,0,0,0,0,0,0,0,0,0,0,0,0,0,0,0,0,0,0,0,0,-6.6199,-6.6201,0,-6.634,-6.6342,-6.6343,-6.6266,-6.6262,-6.6258,-6.6255,-6.6395,-6.6402,-6.641,0,0,0,0,0,0,0,0,0,0,0,0,0,-6.5857,-6.5864,-6.6199,-6.6201,-6.6202,-6.634,-6.6342,-6.6344,-6.6267,-6.6262,-6.6257,-6.6253,-6.6393,-6.6401,-6.641,0,0,0,0,0,0,0,0,0,0,0,0,0,-6.6002,-6.5866,-6.6199,-6.6181,-6.618,-6.634,-6.6342,-6.6344,-6.6268,-6.6262,-6.6256,-6.6251,-6.639,-6.6401,-6.6411,-6.6595,0,0,-6.6445,-6.645,0,0,0,0,0,0,0,0,-6.5994,-6.6015,-6.6182,-6.6182,-6.6182,-6.628,-6.6273,-6.6428,-6.6269,-6.6234,-6.6254,-6.6248,-6.6361,-6.6374,-6.6413,-6.6602,-6.6608,-6.6446,-6.6453,-6.6457,-6.646,0,0,0,0,0,0,0,-6.5984,-6.6009,-6.6255,-6.6184,-6.6184,-6.6164,-6.6178,-6.6302,-6.6328,-6.6237,-6.6232,-6.625,-6.636,-6.6403,-6.6416,-6.661,-6.6446,-6.6455,-6.6462,-6.6467,-6.6953,-6.6959,0,0,0,0,0,0,-6.5976,-6.6001,-6.625,-6.6259,-6.6072,-6.6175,-6.619,-6.6254,-6.6327,-6.6332,-6.6254,-6.6246,-6.6387,-6.6403,-6.6421,-6.6639,-6.6457,-6.6468,-6.6474,-6.6947,-6.6954,-6.6961,0,0,0,0,0,0,-6.5969,-6.5999,-6.6244,-6.6128,-6.6158,-6.6187,-6.6259,-6.626,-6.6303,-6.634,-6.6344,-6.6294,-6.6383,-6.6405,-6.6552,-6.6643,-6.6473,-6.6483,-6.6939,-6.6949,-6.6958,-6.7079,0,0,0,0,0,0,-6.5959,-6.5997,-6.6069,-6.6131,-6.6165,-6.6376,-6.6264,-6.6267,-6.6322,-6.6312,-6.6378,-6.6383,-6.638,-6.6536,-6.6563,-6.6655,-6.6491,-6.6931,-6.6944,-6.6955,-6.7067,-6.7091,-6.7112,0,0,0,0,0,-6.5948,-6.6097,-6.6073,-6.6103,-6.6255,-6.6381,-6.64,-6.6395,-6.633,-6.6401,-6.6425,-6.6381,-6.6629,-6.6552,-6.6581,-6.6678,-6.6926,-6.694,-6.6954,-6.7057,-6.7086,-6.7112,0,0,0,0,0,0,-6.6044,-6.6104,-6.6079,-6.6253,-6.6313,-6.6368,-6.6458,-6.6427,-6.6506,-6.6493,-6.6481,-6.6497,-6.6649,-6.6678,-6.6591,-6.6858,-6.6767,-6.6787,-6.6834,-6.6863,-6.6885,-6.6875,-6.65,0,0,0,0,0,-6.6085,-6.6184,-6.6231,-6.638,-6.6411,-6.643,-6.6484,-6.6475,-6.6536,-6.6561,-6.6595,-6.6655,-6.6745,-6.6806,-6.6891,-6.707,-6.7082,-6.7151,-6.7173,-6.7192,-6.721,-6.7305,-6.7335,-6.7008,-6.7008,-6.7008,0,0,-6.6172,-6.6217,-6.628,-6.64,-6.6446,-6.6547,-6.6452,-6.6563,-6.6637,-6.6577,-6.6718,-6.6745,-6.681,-6.6974,-6.7047,-6.7002,-6.7303,-6.721,-6.7224,-6.7233,-6.7323,-6.7354,-6.7381,-6.7018,-6.7016,-6.7014,0,0,-6.6382,-6.6427,-6.6555,-6.6602,-6.6672,-6.6683,-6.6713,-6.6774,-6.679,-6.6931,-6.6888,-6.6974,-6.7132,-6.718,-6.7225,-6.745,-6.7412,-6.7478,-6.7597,-6.7689,-6.7715,-6.7738,-6.7817,-6.7846,-6.7496,-6.7496,-6.7496,0,-6.648,-6.6633,-6.6624,-6.6739,-6.6792,-6.6743,-6.6871,-6.6917,-6.7011,-6.7048,-6.6996,-6.7192,-6.7232,-6.7405,-6.746,-6.7498,-6.7531,-6.7471,-6.7712,-6.7735,-6.7756,-6.7832,-6.7862,-6.7504,-6.7503,-6.7502,-6.7501,0,-6.675,-6.6856,-6.695,-6.7044,-6.7107,-6.7228,-6.7236,-6.7301,-6.7285,-6.7301,-6.7444,-6.7491,-6.7585,-6.7625,-6.761,-6.7795,-6.7765,-6.7713,-6.7621,-6.7795,-6.7866,-6.7895,-6.7515,-6.7512,-6.751,-6.7508,0,0,-6.7026,-6.7112,-6.7147,-6.7187,-6.726,-6.734,-6.7458,-6.755,-6.7606,-6.7671,-6.7768,-6.7902,-6.7854,-6.7905,-6.7895,-6.7976,-6.815,-6.7914,-6.7915,-6.7955,-6.8355,-6.8393,-6.8427,-6.8125,-6.813,-6.8134,-6.8349,0,-6.724,-6.7448,-6.7442,-6.7634,-6.7731,-6.7684,-6.7786,-6.784,-6.7857,-6.794,-6.7957,-6.8052,-6.7982,-6.8012,-6.809,-6.8112,-6.823,-6.8097,-6.8213,-6.8218,-6.8199,-6.8464,-6.8506,-6.8707,-6.8377,-6.8381,-6.8385,0,-6.7519,-6.7594,-6.7796,-6.7853,-6.7893,-6.7985,-6.8068,-6.8149,-6.8208,-6.8214,-6.8271,-6.8247,-6.8364,-6.8268,-6.8427,-6.8337,-6.8383,-6.8401,-6.8408,-6.8419,-6.8312,-6.8482,-6.877,-6.88,-6.8428,-6.8425,-6.8422,0,-6.7699,-6.7851,-6.7991,-6.8027,-6.8097,-6.8163,-6.8194,-6.8248,-6.8303,-6.8375,-6.841,-6.8495,-6.8541,-6.8605,-6.8604,-6.8535,-6.8765,-6.867,-6.8773,-6.8773,-6.8824,-6.8821,-6.9124,-6.8854,-6.8854,-6.8853,-6.8853,0,-6.7939,-6.8064,-6.8073,-6.816,-6.8297,-6.8289,-6.8425,-6.845,-6.8498,-6.8586,-6.855,-6.8633,-6.8627,-6.8711,-6.871,-6.8841,-6.8862,-6.8869,-6.8868,-6.8873,-6.8872,-6.8904,-6.889,-6.8861,-6.886,-6.8858,-6.8857,0,-6.8165,-6.8176,-6.8325,-6.8379,-6.8395,-6.8494,-6.8538,-6.8619,-6.8632,-6.8744,-6.877,-6.879,-6.8886,-6.8891,-6.9002,-6.9002,-6.9161,-6.9144,-6.9142,-6.9139,-6.9241,-6.9232,-6.9576,-6.962,-6.9322,-6.9325,-6.9327,0,-6.8318,-6.8413,-6.8476,-6.8533,-6.8569,-6.8662,-6.8718,-6.8712,-6.8772,-6.8845,-6.8917,-6.901,-6.9084,-6.924,-6.9263,-6.9347,-6.9331,-6.9446,-6.9344,-6.9345,-6.9332,-6.9327,-6.9336,-6.9466,-6.9469,-6.9472,-6.9474,0,-6.8587,-6.8587,-6.8671,-6.8756,-6.8824,-6.889,-6.8952,-6.9,-6.9001,-6.9069,-6.9168,-6.9226,-6.9339,-6.9431,-6.9512,-6.9542,-6.9509,-6.9506,-6.9534,-6.9541,-6.9535,-6.9539,-6.9196,-6.9498,-6.9496,-6.9494,-6.9493,-6.9492,-6.8781,-6.8863,-6.892,-6.9013,-6.9059,-6.9117,-6.9195,-6.9217,-6.93,-6.9392,-6.9383,-6.9492,-6.9546,-6.9652,-6.9688,-6.9772,-6.9733,-6.9774,-6.9784,-6.9794,-6.9805,-6.9522,-6.9787,-6.9786,-6.9785,-6.9785,-6.9784,0,-6.9048,-6.9082,-6.9168,-6.9256,-6.9328,-6.929,-6.9356,-6.9419,-6.9516,-6.957,-6.9643,-6.9755,-6.9844,-6.9874,-6.9959,-7.002,-7.0007,-7.0043,-7.0038,-7.0046,-6.9836,-6.9803,-7.0052,-7.0052,-7.0052,-7.0052,-7.0052,-7.0052,-6.9196,-6.9333,-6.9339,-6.9496,-6.9529,-6.9637,-6.9677,-6.9729,-6.9772,-6.9899,-6.9973,-6.9992,-7.0035,-7.0123,-7.0202,-7.0208,-7.0241,-7.0284,-7.0284,-7.0087,-7.006,-7.0035,-7.0004,-7.0291,-7.0292,-7.0486,-7.0488,-7.0489]}]]